TimeCDT,TemperatureF,Dew PointF,Humidity,Sea Level PressureIn,VisibilityMPH,Wind Direction,Wind SpeedMPH,Gust SpeedMPH,PrecipitationIn,Events,Conditions,WindDirDegrees,DateUTC
12:15 AM,84.6,70.2,62,29.84,10.0,Calm,Calm,-,N/A,,Clear,0,2013-06-29 05:15:00
12:35 AM,84.2,70.2,63,29.84,10.0,WNW,3.5,-,N/A,,Clear,290,2013-06-29 05:35:00
12:55 AM,82.6,70.7,67,29.84,10.0,Calm,Calm,-,N/A,,Clear,0,2013-06-29 05:55:00
1:15 AM,82.8,70.9,67,29.85,10.0,WNW,3.5,-,N/A,,Clear,300,2013-06-29 06:15:00
1:35 AM,82.4,71.4,69,29.85,10.0,Calm,Calm,-,N/A,,Scattered Clouds,0,2013-06-29 06:35:00
1:55 AM,81.1,71.8,73,29.85,10.0,NNW,3.5,-,N/A,,Scattered Clouds,330,2013-06-29 06:55:00
2:15 AM,80.6,72.0,75,29.85,10.0,Calm,Calm,-,N/A,,Clear,0,2013-06-29 07:15:00
2:35 AM,79.9,72.0,77,29.85,10.0,NNW,3.5,-,N/A,,Clear,330,2013-06-29 07:35:00
2:55 AM,78.8,72.5,81,29.86,10.0,Calm,Calm,-,N/A,,Clear,0,2013-06-29 07:55:00
3:15 AM,77.4,72.3,84,29.86,10.0,Calm,Calm,-,N/A,,Clear,0,2013-06-29 08:15:00
3:35 AM,77.9,72.5,83,29.86,10.0,NNW,3.5,-,N/A,,Clear,340,2013-06-29 08:35:00
3:55 AM,78.1,72.0,81,29.86,10.0,NNW,3.5,-,N/A,,Clear,340,2013-06-29 08:55:00
4:15 AM,78.1,71.8,81,29.86,10.0,North,4.6,-,N/A,,Clear,350,2013-06-29 09:15:00
4:35 AM,78.4,71.6,79,29.86,10.0,North,4.6,-,N/A,,Clear,360,2013-06-29 09:35:00
4:55 AM,78.8,71.1,77,29.86,10.0,North,3.5,-,N/A,,Scattered Clouds,360,2013-06-29 09:55:00
5:15 AM,78.3,71.2,79,29.87,10.0,North,5.8,-,N/A,,Mostly Cloudy,360,2013-06-29 10:15:00
5:35 AM,78.1,70.7,78,29.86,10.0,North,4.6,-,N/A,,Mostly Cloudy,350,2013-06-29 10:35:00
5:55 AM,77.2,70.7,80,29.87,10.0,North,4.6,-,N/A,,Scattered Clouds,350,2013-06-29 10:55:00
6:15 AM,77.0,70.7,81,29.88,10.0,North,4.6,-,N/A,,Scattered Clouds,350,2013-06-29 11:15:00
6:35 AM,77.0,70.7,81,29.88,10.0,Calm,Calm,-,N/A,,Scattered Clouds,0,2013-06-29 11:35:00
6:55 AM,77.0,70.7,81,29.88,10.0,North,3.5,-,N/A,,Clear,350,2013-06-29 11:55:00
7:15 AM,77.7,71.2,80,29.88,10.0,North,3.5,-,N/A,,Clear,360,2013-06-29 12:15:00
7:35 AM,79.5,71.4,76,29.88,10.0,NNW,3.5,-,N/A,,Clear,340,2013-06-29 12:35:00
7:55 AM,81.3,71.2,71,29.89,10.0,North,4.6,-,N/A,,Clear,350,2013-06-29 12:55:00
8:15 AM,82.9,70.5,66,29.89,10.0,North,4.6,-,N/A,,Clear,360,2013-06-29 13:15:00
8:35 AM,84.2,70.0,62,29.89,10.0,North,5.8,-,N/A,,Clear,360,2013-06-29 13:35:00
8:55 AM,86.2,69.3,57,29.89,10.0,North,4.6,-,N/A,,Clear,10,2013-06-29 13:55:00
9:15 AM,87.3,66.7,50,29.90,10.0,North,5.8,-,N/A,,Clear,360,2013-06-29 14:15:00
9:35 AM,88.2,65.5,47,29.90,10.0,North,5.8,-,N/A,,Clear,10,2013-06-29 14:35:00
9:55 AM,89.6,64.6,43,29.90,10.0,North,9.2,-,N/A,,Clear,360,2013-06-29 14:55:00
10:15 AM,90.3,63.9,41,29.90,10.0,North,5.8,-,N/A,,Clear,350,2013-06-29 15:15:00
10:35 AM,90.9,65.3,43,29.89,10.0,North,6.9,-,N/A,,Clear,360,2013-06-29 15:35:00
10:55 AM,91.2,64.8,41,29.89,10.0,North,8.1,-,N/A,,Clear,360,2013-06-29 15:55:00
11:15 AM,91.9,61.3,36,29.89,10.0,North,11.5,18.4,N/A,,Clear,360,2013-06-29 16:15:00
11:35 AM,92.7,61.3,35,29.90,10.0,North,10.4,21.9,N/A,,Clear,360,2013-06-29 16:35:00
11:55 AM,93.2,61.7,35,29.90,10.0,North,10.4,20.7,N/A,,Clear,360,2013-06-29 16:55:00
12:15 PM,93.6,63.0,36,29.89,10.0,North,9.2,16.1,N/A,,Clear,350,2013-06-29 17:15:00
12:35 PM,93.7,62.8,36,29.88,10.0,NNE,9.2,-,N/A,,Clear,30,2013-06-29 17:35:00
12:55 PM,94.6,63.0,35,29.88,10.0,North,11.5,17.3,N/A,,Clear,350,2013-06-29 17:55:00
1:15 PM,95.0,63.5,35,29.87,10.0,NNE,9.2,-,N/A,,Clear,30,2013-06-29 18:15:00
1:35 PM,94.5,62.4,34,29.87,10.0,North,8.1,-,N/A,,Clear,350,2013-06-29 18:35:00
1:55 PM,96.1,61.2,31,29.87,10.0,NNW,15.0,21.9,N/A,,Clear,340,2013-06-29 18:55:00
2:15 PM,96.1,61.7,32,29.87,10.0,North,10.4,19.6,N/A,,Clear,350,2013-06-29 19:15:00
2:35 PM,95.9,60.1,30,29.86,10.0,North,10.4,-,N/A,,Clear,10,2013-06-29 19:35:00
2:55 PM,95.7,60.3,31,29.85,10.0,North,11.5,21.9,N/A,,Clear,360,2013-06-29 19:55:00
3:15 PM,96.1,62.1,32,29.85,10.0,NNW,10.4,19.6,N/A,,Clear,340,2013-06-29 20:15:00
3:35 PM,96.8,60.1,29,29.85,10.0,North,13.8,20.7,N/A,,Clear,350,2013-06-29 20:35:00
3:55 PM,96.1,61.0,31,29.84,10.0,North,12.7,19.6,N/A,,Clear,10,2013-06-29 20:55:00
4:15 PM,95.7,59.5,30,29.84,10.0,North,11.5,20.7,N/A,,Clear,360,2013-06-29 21:15:00
4:35 PM,95.2,59.7,31,29.83,10.0,North,8.1,20.7,N/A,,Clear,10,2013-06-29 21:35:00
4:55 PM,95.7,61.0,31,29.83,10.0,North,10.4,-,N/A,,Clear,350,2013-06-29 21:55:00
5:15 PM,95.0,62.1,33,29.82,10.0,North,10.4,-,N/A,,Clear,10,2013-06-29 22:15:00
5:35 PM,95.2,61.9,33,29.81,10.0,North,8.1,-,N/A,,Clear,10,2013-06-29 22:35:00
5:55 PM,95.2,59.5,30,29.81,10.0,North,13.8,17.3,N/A,,Clear,360,2013-06-29 22:55:00
6:15 PM,95.0,59.9,31,29.81,10.0,North,10.4,-,N/A,,Clear,360,2013-06-29 23:15:00
6:35 PM,94.3,59.7,31,29.81,10.0,North,10.4,-,N/A,,Clear,350,2013-06-29 23:35:00
6:55 PM,94.1,60.3,32,29.80,10.0,North,6.9,-,N/A,,Clear,350,2013-06-29 23:55:00
7:15 PM,93.0,61.5,35,29.81,10.0,North,5.8,-,N/A,,Clear,350,2013-06-30 00:15:00
7:35 PM,91.6,61.7,37,29.81,10.0,North,4.6,-,N/A,,Clear,360,2013-06-30 00:35:00
7:55 PM,90.1,62.8,40,29.81,10.0,North,3.5,-,N/A,,Clear,350,2013-06-30 00:55:00
8:15 PM,88.9,62.1,41,29.81,10.0,North,3.5,-,N/A,,Clear,350,2013-06-30 01:15:00
8:35 PM,86.7,62.6,44,29.81,10.0,NNW,3.5,-,N/A,,Clear,330,2013-06-30 01:35:00
8:55 PM,84.7,63.1,48,29.81,10.0,NW,3.5,-,N/A,,Clear,310,2013-06-30 01:55:00
9:15 PM,84.0,63.3,50,29.81,10.0,Calm,Calm,-,N/A,,Clear,0,2013-06-30 02:15:00
9:35 PM,84.2,62.8,48,29.81,10.0,Calm,Calm,-,N/A,,Clear,0,2013-06-30 02:35:00
9:55 PM,82.8,63.5,52,29.82,10.0,Calm,Calm,-,N/A,,Clear,0,2013-06-30 02:55:00
10:15 PM,82.9,62.8,50,29.82,10.0,Calm,Calm,-,N/A,,Clear,0,2013-06-30 03:15:00
10:35 PM,82.2,63.3,53,29.82,10.0,Calm,Calm,-,N/A,,Clear,0,2013-06-30 03:35:00
10:55 PM,80.6,63.9,57,29.83,10.0,WNW,3.5,-,N/A,,Clear,290,2013-06-30 03:55:00
11:15 PM,79.7,64.2,59,29.83,10.0,West,4.6,-,N/A,,Clear,280,2013-06-30 04:15:00
11:35 PM,78.8,64.4,61,29.83,10.0,WNW,3.5,-,N/A,,Clear,290,2013-06-30 04:35:00
11:55 PM,77.7,64.6,64,29.83,10.0,WNW,3.5,-,N/A,,Clear,290,2013-06-30 04:55:00